Starlink 4718

operational
NORAD ID: 53773 Int'l Des: 2022-111 Owner: SPXS Country: US Constellation: starlink
LEOCIRCULAR

关于 Starlink 4718

正在加载描述...

实时位置

正在加载3D地球...

即将过境

高度历史

Altitude vs Time

uPlot chart will show altitude changes over time

两行轨道根数

1 53773U 22111A 25296.94871723 -.00001251 00000-0 -60548-4 0 9995
2 53773 53.2184 177.8950 0001714 91.8499 268.2689 15.08833659173202
Epoch: Oct 23, 2025 • Age: 16 hours

当前状态

高度 551.1 km
速度 7.59 km/s
星下点 -33.26°S, 104.63°W
发射日期 Sep 11, 2022
运行时间 3.1 years
类型 internet

技术详情

分类 Payload
质量 305.00 kg
干质量 290.00 kg
总质量 305.00 kg
长度 0.20 m
直径 2.80 m
跨度 9.00 m
形状 Box + pan
制造商 SPXS
平台类型 Starlink
阶段状态 In Orbit
所有者/国家 SPXS/US

大型星座

Loading constellations...